DW1806 Weather Reports


Display with metric or nautical units.
time (UTC)temp
F
wind
direction
speed
MPH
gust
MPH
rain 1hr
in
rain 24hr
in
rain mn
in
humidity
%
barometer
mb
20201020172031 50 30 3.0 0.0 0.00 0.00 0.34 81 1024.7
20201020171543 50 16 2.0 0.0 0.00 0.00 0.34 81 1024.9
20201020171019 50 360 2.0 0.0 0.00 0.00 0.34 82 1025.0
20201020170516 50 37 2.0 0.0 0.00 0.00 0.34 82 1024.8
20201020170028 50 17 2.0 0.0 0.00 0.00 0.34 83 1024.8
20201020165511 50 5 2.0 0.0 0.00 0.00 0.34 86 1024.6
20201020165019 49 34 3.0 0.0 0.00 0.00 0.34 83 1024.3
20201020164534 49 28 3.0 0.0 0.00 0.00 0.34 85 1024.4
20201020164032 49 12 3.0 0.0 0.00 0.00 0.34 85 1024.2
20201020163512 49 55 2.0 0.0 0.00 0.00 0.34 87 1024.2
20201020163042 49 38 1.0 0.0 0.00 0.00 0.34 86 1024.1
20201020162511 49 54 1.0 0.0 0.00 0.00 0.34 88 1024.1
20201020162011 49 59 2.0 0.0 0.00 0.00 0.34 88 1023.9
20201020161537 49 355 1.0 0.0 0.00 0.00 0.34 89 1023.9
20201020161008 48 33 2.0 0.0 0.00 0.00 0.34 88 1024.1
20201020160510 48 13 3.0 0.0 0.00 0.00 0.34 88 1023.9
20201020160010 48 30 2.0 0.0 0.00 0.00 0.34 88 1024.0
20201020155510 48 21 2.0 0.0 0.00 0.00 0.34 89 1024.0
20201020155009 48 40 3.0 0.0 0.00 0.00 0.34 89 1024.0
20201020154514 48 34 2.0 0.0 0.00 0.00 0.34 89 1023.9
20201020154018 48 50 2.0 0.0 0.00 0.00 0.34 89 1024.1
20201020153504 48 53 3.0 0.0 0.00 0.00 0.34 88 1024.3
20201020153034 47 17 3.0 0.0 0.00 0.00 0.34 89 1024.3
20201020152518 48 39 4.0 0.0 0.00 0.00 0.34 90 1024.2
20201020152007 47 5 4.0 0.0 0.00 0.00 0.34 89 1024.1
20201020151509 48 23 3.0 0.0 0.00 0.00 0.34 90 1024.3
20201020150603 48 324 4.0 0.0 0.00 0.00 0.34 91 1024.4
20201020150211 48 5 5.0 0.0 0.00 0.00 0.34 91 1024.1
20201020145600 48 338 4.0 0.0 0.00 0.00 0.34 92 1024.1
20201020145107 48 346 4.0 0.0 0.00 0.00 0.34 93 1024.0
20201020144905 47 22 4.0 0.0 0.00 0.00 0.34 93 1023.9
20201020144057 47 9 3.0 0.0 0.00 0.00 0.34 94 1023.7
20201020143605 47 41 4.0 0.0 0.00 0.00 0.34 95 1023.5
20201020143229 47 340 4.0 0.0 0.00 0.00 0.34 94 1023.5
20201020142605 47 25 4.0 0.0 0.00 0.00 0.34 95 1023.6
20201020142143 47 355 4.0 0.0 0.00 0.00 0.34 95 1023.5
20201020141633 47 5 5.0 0.0 0.00 0.00 0.34 95 1023.3
20201020141057 47 13 4.0 0.0 0.00 0.00 0.34 95 1023.1
20201020140602 47 9 3.0 0.0 0.00 0.00 0.34 95 1023.2
20201020140218 47 19 3.0 0.0 0.00 0.00 0.34 96 1023.3
20201020135605 47 10 2.0 0.0 0.00 0.00 0.34 96 1023.7
20201020135055 46 9 2.0 0.0 0.00 0.00 0.34 96 1023.6
20201020134744 46 9 2.0 0.0 0.00 0.00 0.34 96 1023.7
20201020134105 46 26 3.0 0.0 0.00 0.00 0.34 96 1023.4
20201020133553 46 27 3.0 0.0 0.00 0.00 0.34 96 1023.4
20201020133148 46 36 2.0 0.0 0.00 0.00 0.34 96 1023.3
20201020132556 46 16 2.0 0.0 0.00 0.00 0.34 96 1023.3
20201020132051 46 22 2.0 0.0 0.00 0.00 0.34 96 1023.4
20201020131801 46 24 3.0 0.0 0.00 0.00 0.34 96 1023.3
20201020131054 46 340 3.0 0.0 0.00 0.00 0.34 96 1023.2
20201020130552 46 349 3.0 0.0 0.00 0.00 0.34 96 1023.2
20201020130342 46 10 4.0 0.0 0.00 0.00 0.34 96 1023.2
20201020125552 46 19 4.0 0.0 0.00 0.00 0.34 96 1023.1
20201020125050 46 355 3.0 0.0 0.00 0.00 0.34 96 1023.0
20201020124640 46 338 3.0 0.0 0.00 0.00 0.34 96 1022.8
20201020124048 46 360 2.0 0.0 0.00 0.00 0.34 96 1022.7
20201020123546 46 9 2.0 0.0 0.00 0.00 0.34 96 1022.4
20201020123212 46 5 2.0 0.0 0.00 0.00 0.34 97 1022.2
20201020122556 46 355 2.0 0.0 0.00 0.00 0.34 96 1022.4
20201020122104 46 11 1.0 0.0 0.00 0.00 0.34 96 1022.4
20201020121632 46 9 1.0 0.0 0.00 0.00 0.34 96 1022.2
20201020121052 46 9 0.0 0.0 0.00 0.00 0.34 96 1022.1
20201020120544 46 5 1.0 0.0 0.00 0.00 0.34 96 1022.1
20201020120119 46 5 2.0 0.0 0.00 0.00 0.33 96 1022.0
20201020115552 46 5 2.0 0.0 0.00 0.00 0.32 96 1021.7
20201020115050 46 51 2.0 0.0 0.00 0.00 0.32 96 1021.7
20201020114651 46 42 3.0 0.0 0.00 0.00 0.32 96 1021.7
20201020114118 46 342 2.0 0.0 0.00 0.00 0.32 96 1022.1
20201020113541 46 344 1.0 0.0 0.00 0.00 0.31 96 1022.0
20201020113102 46 19 1.0 0.0 0.00 0.00 0.31 96 1021.8
20201020112552 46 19 3.0 0.0 0.00 0.00 0.31 96 1021.5
20201020112043 46 23 3.0 0.0 0.00 0.00 0.31 96 1021.5
20201020111610 46 342 3.0 0.0 0.00 0.00 0.31 96 1021.5
20201020111039 46 11 3.0 0.0 0.00 0.00 0.31 96 1021.6
20201020110538 46 5 4.0 0.0 0.00 0.00 0.31 96 1021.4
20201020110155 46 355 3.0 0.0 0.00 0.00 0.31 96 1021.4
20201020105544 46 337 3.0 0.0 0.00 0.00 0.31 96 1021.4
20201020105044 46 5 3.0 0.0 0.00 0.00 0.31 96 1021.3
20201020104553 46 17 3.0 0.0 0.00 0.00 0.31 96 1021.3
20201020104041 46 335 4.0 0.0 0.00 0.00 0.31 96 1021.3
20201020103538 46 324 3.0 0.0 0.00 0.00 0.31 96 1021.1
20201020103138 46 345 3.0 0.0 0.00 0.00 0.31 96 1020.7
20201020102533 46 323 3.0 0.0 0.00 0.00 0.31 96 1020.6
20201020102038 46 355 3.0 0.0 0.00 0.00 0.31 96 1020.6
20201020101550 46 350 3.0 0.0 0.00 0.00 0.31 96 1020.4
20201020101038 46 5 3.0 0.0 0.00 0.00 0.31 96 1020.4
20201020100538 46 360 3.0 0.0 0.00 0.00 0.30 96 1020.4
20201020100209 46 360 2.0 0.0 0.00 0.00 0.28 96 1020.4
20201020095530 46 5 2.0 0.0 0.00 0.00 0.28 96 1020.6
20201020095029 46 5 2.0 0.0 0.00 0.00 0.28 96 1020.1
20201020094547 46 22 3.0 0.0 0.00 0.00 0.28 96 1020.0
20201020094054 46 13 3.0 0.0 0.00 0.00 0.28 96 1019.8
20201020093538 46 5 2.0 0.0 0.00 0.00 0.28 96 1019.9
20201020093131 46 5 2.0 0.0 0.00 0.00 0.28 96 1019.7
20201020092528 46 5 1.0 0.0 0.00 0.00 0.28 96 1019.8
20201020092028 46 5 1.0 0.0 0.00 0.00 0.28 96 1019.7
20201020091557 46 5 2.0 0.0 0.00 0.00 0.27 96 1019.7
20201020091033 46 342 2.0 0.0 0.00 0.00 0.27 96 1019.9
20201020090528 46 40 1.0 0.0 0.00 0.00 0.26 96 1019.6
20201020090048 46 40 1.0 0.0 0.00 0.00 0.26 96 1019.2
20201020085526 46 38 1.0 0.0 0.00 0.00 0.26 96 1019.6
20201020085039 46 38 1.0 0.0 0.00 0.00 0.25 96 1019.5
20201020084525 46 38 2.0 0.0 0.00 0.00 0.25 96 1019.2
20201020084024 46 38 2.0 0.0 0.00 0.00 0.24 96 1019.0
20201020083531 46 36 2.0 0.0 0.00 0.00 0.23 96 1019.0
20201020083033 46 12 1.0 0.0 0.00 0.00 0.22 96 1019.4
20201020082528 46 5 2.0 0.0 0.00 0.00 0.21 96 1019.6
20201020082043 46 5 2.0 0.0 0.00 0.00 0.21 96 1019.6
20201020081546 46 13 2.0 0.0 0.00 0.00 0.20 96 1019.3
20201020081037 46 33 2.0 0.0 0.00 0.00 0.19 96 1019.2
20201020080542 46 360 2.0 0.0 0.00 0.00 0.19 96 1019.3
20201020080037 46 10 3.0 0.0 0.00 0.00 0.19 96 1019.2
20201020075528 46 5 3.0 0.0 0.00 0.00 0.18 96 1019.3
20201020075020 46 26 4.0 0.0 0.00 0.00 0.17 96 1019.2
20201020074549 46 28 3.0 0.0 0.00 0.00 0.17 96 1019.2
20201020074032 46 59 3.0 0.0 0.00 0.00 0.17 96 1019.1
20201020073522 46 29 3.0 0.0 0.00 0.00 0.16 96 1019.0
20201020073041 46 32 2.0 0.0 0.00 0.00 0.15 96 1018.9
20201020072527 46 32 2.0 0.0 0.00 0.00 0.15 96 1019.0
20201020072032 46 32 3.0 0.0 0.00 0.00 0.14 96 1019.1
20201020071531 46 34 4.0 0.0 0.00 0.00 0.13 96 1019.0
20201020071025 46 351 4.0 0.0 0.00 0.00 0.13 96 1019.2
20201020070523 46 12 5.0 0.0 0.00 0.00 0.13 96 1019.1
20201020070034 46 360 6.0 0.0 0.00 0.00 0.13 96 1019.0
20201020065517 46 18 6.0 0.0 0.00 0.00 0.13 96 1019.1
20201020065022 46 5 6.0 0.0 0.00 0.00 0.13 96 1019.0
20201020064611 46 54 6.0 0.0 0.00 0.00 0.13 96 1018.8
20201020064024 47 61 5.0 0.0 0.00 0.00 0.13 96 1019.0
20201020063512 47 332 5.0 0.0 0.00 0.00 0.13 96 1019.0
20201020063024 47 310 4.0 0.0 0.00 0.00 0.13 96 1019.1
20201020062518 47 5 5.0 0.0 0.00 0.00 0.13 96 1018.8
20201020062015 47 355 5.0 0.0 0.00 0.00 0.12 96 1018.7
20201020061546 47 9 5.0 0.0 0.00 0.00 0.12 96 1018.7
20201020061016 47 325 5.0 0.0 0.00 0.00 0.12 96 1018.7
20201020060512 47 321 6.0 0.0 0.00 0.00 0.11 96 1018.5
20201020060021 47 324 6.0 0.0 0.00 0.00 0.10 96 1018.7
20201020055511 48 319 6.0 0.0 0.00 0.00 0.10 96 1018.6
20201020055009 48 360 6.0 0.0 0.00 0.00 0.10 96 1018.6
20201020054511 48 355 6.0 0.0 0.00 0.00 0.10 96 1018.3
20201020054015 49 309 5.0 0.0 0.00 0.00 0.09 96 1018.4
20201020053614 49 339 5.0 0.0 0.00 0.00 0.09 96 1018.2
20201020053316 49 326 5.0 0.0 0.00 0.00 0.09 96 1018.1
20201020052621 50 349 5.0 0.0 0.00 0.00 0.09 96 1018.1
20201020052103 50 338 3.0 0.0 0.00 0.00 0.09 96 1018.0
20201020051610 50 311 2.0 0.0 0.00 0.00 0.09 97 1018.0
20201020051055 50 355 2.0 0.0 0.00 0.00 0.09 97 1017.8
20201020050610 50 337 3.0 0.0 0.00 0.00 0.09 97 1017.9
20201020050124 50 344 4.0 0.0 0.00 0.00 0.09 97 1017.5
20201020045602 50 355 5.0 0.0 0.00 0.00 0.09 97 1017.7
20201020045052 51 355 5.0 0.0 0.00 0.00 0.09 97 1017.7
20201020044702 51 360 5.0 0.0 0.00 0.00 0.08 97 1017.8
20201020044058 51 335 3.0 0.0 0.00 0.00 0.06 97 1017.9
20201020043550 51 333 2.0 0.0 0.00 0.00 0.05 97 1017.9
20201020043140 51 308 1.0 0.0 0.00 0.00 0.03 97 1018.0
20201020042549 51 92 0.0 0.0 0.00 0.00 0.01 97 1018.2
20201020042056 51 94 0.0 0.0 0.00 0.00 0.01 97 1018.0
20201020041605 51 94 0.0 0.0 0.00 0.00 0.01 97 1017.9
20201020041124 51 94 0.0 0.0 0.00 0.00 0.01 97 1017.9
20201020040608 51 94 0.0 0.0 0.00 0.00 0.01 97 1017.7
20201020040127 51 94 0.0 0.0 0.00 0.00 0.01 97 1018.0
20201020035549 51 94 0.0 0.0 0.00 0.00 0.39 97 1018.3
20201020035102 51 94 0.0 0.0 0.00 0.00 0.39 97 1018.4
20201020034742 51 94 0.0 0.0 0.00 0.00 0.39 97 1018.3
20201020034057 51 94 0.0 0.0 0.00 0.00 0.38 97 1018.3
20201020033551 51 94 0.0 0.0 0.00 0.00 0.38 97 1018.2
20201020033147 51 94 0.0 0.0 0.00 0.00 0.38 97 1018.3
20201020032600 51 94 0.0 0.0 0.00 0.00 0.38 97 1018.4
20201020032049 51 94 1.0 0.0 0.00 0.00 0.37 97 1018.5
20201020031616 51 94 1.0 0.0 0.00 0.00 0.37 97 1018.6
20201020031103 51 88 0.0 0.0 0.00 0.00 0.36 97 1018.5
20201020030607 51 81 0.0 0.0 0.00 0.00 0.36 97 1018.3
20201020030107 51 81 0.0 0.0 0.00 0.00 0.35 97 1018.4
20201020025545 51 80 0.0 0.0 0.00 0.00 0.35 97 1018.2
20201020025043 51 80 1.0 0.0 0.00 0.00 0.35 97 1018.2
20201020024734 51 81 1.0 0.0 0.00 0.00 0.35 97 1018.2
20201020024044 51 81 0.0 0.0 0.00 0.00 0.35 97 1018.2
20201020023544 51 81 0.0 0.0 0.00 0.00 0.34 97 1017.8
20201020023154 51 81 0.0 0.0 0.00 0.00 0.34 97 1017.8
20201020022616 51 81 0.0 0.0 0.00 0.00 0.34 97 1018.0
20201020022049 51 81 0.0 0.0 0.00 0.00 0.34 97 1018.0
20201020021612 51 81 0.0 0.0 0.00 0.00 0.34 97 1017.9
20201020021042 51 88 0.0 0.0 0.00 0.00 0.34 97 1018.2
20201020020545 51 88 0.0 0.0 0.00 0.00 0.32 97 1018.2
20201020020225 51 88 1.0 0.0 0.00 0.00 0.32 97 1018.3
20201020015541 51 88 1.0 0.0 0.00 0.00 0.32 97 1018.2
20201020015039 51 69 1.0 0.0 0.00 0.00 0.32 97 1018.2
20201020014556 51 70 0.0 0.0 0.00 0.00 0.31 97 1018.3
20201020014038 51 70 0.0 0.0 0.00 0.00 0.31 97 1018.4
20201020013537 51 70 1.0 0.0 0.00 0.00 0.30 97 1018.7
20201020013123 51 70 1.0 0.0 0.00 0.00 0.30 97 1018.7
20201020012543 51 70 1.0 0.0 0.00 0.00 0.30 97 1018.8
20201020012042 51 70 0.0 0.0 0.00 0.00 0.30 97 1018.9
20201020011617 50 70 0.0 0.0 0.00 0.00 0.30 97 1018.8
20201020011037 50 70 0.0 0.0 0.00 0.00 0.30 97 1018.7
20201020010544 50 71 0.0 0.0 0.00 0.00 0.30 97 1018.8
20201020010148 50 71 1.0 0.0 0.00 0.00 0.28 97 1019.0
20201020005537 50 70 1.0 0.0 0.00 0.00 0.28 97 1019.1
20201020005043 50 80 1.0 0.0 0.00 0.00 0.28 97 1019.4
20201020004605 50 80 0.0 0.0 0.00 0.00 0.28 97 1019.3
20201020004031 50 81 1.0 0.0 0.00 0.00 0.28 97 1019.4
20201020003531 50 80 1.0 0.0 0.00 0.00 0.28 97 1019.4
20201020003152 50 94 1.0 0.0 0.00 0.00 0.28 97 1019.3
20201020002533 50 91 1.0 0.0 0.00 0.00 0.28 97 1019.2
20201020002036 50 115 1.0 0.0 0.00 0.00 0.28 97 1019.2
20201020001537 50 115 1.0 0.0 0.00 0.00 0.28 97 1019.4
20201020001029 50 129 1.0 0.0 0.00 0.00 0.28 97 1019.5
20201020000530 50 101 2.0 0.0 0.00 0.00 0.28 96 1019.6
20201020000038 50 92 1.0 0.0 0.00 0.00 0.28 96 1019.7
20201019235532 50 101 1.0 0.0 0.00 0.00 0.28 96 1019.8
20201019235041 50 104 2.0 0.0 0.00 0.00 0.28 96 1019.8
20201019234556 50 57 2.0 0.0 0.00 0.00 0.28 96 1019.9
20201019234033 50 57 2.0 0.0 0.00 0.00 0.28 96 1020.0
20201019233531 50 90 1.0 0.0 0.00 0.00 0.27 96 1019.9
20201019233130 50 55 1.0 0.0 0.00 0.00 0.26 96 1020.3
20201019232527 50 85 1.0 0.0 0.00 0.00 0.26 96 1020.4
20201019232036 50 92 1.0 0.0 0.00 0.00 0.25 96 1020.5
20201019231609 50 84 1.0 0.0 0.00 0.00 0.25 96 1020.4
20201019231036 50 42 1.0 0.0 0.00 0.00 0.24 96 1020.3
20201019230534 50 49 2.0 0.0 0.00 0.00 0.24 96 1020.5
20201019230126 50 74 1.0 0.0 0.00 0.00 0.24 96 1020.5
20201019225526 50 49 1.0 0.0 0.00 0.00 0.24 96 1020.6
20201019225033 50 69 1.0 0.0 0.00 0.00 0.24 96 1020.5
20201019224531 50 80 1.0 0.0 0.00 0.00 0.24 96 1020.5
20201019224038 50 87 1.0 0.0 0.00 0.00 0.24 96 1020.5
20201019223526 50 85 1.0 0.0 0.00 0.00 0.23 96 1020.4
20201019223053 50 93 1.0 0.0 0.00 0.00 0.23 96 1020.6
20201019222526 50 45 1.0 0.0 0.00 0.00 0.23 96 1020.6
20201019222035 50 51 1.0 0.0 0.00 0.00 0.23 96 1020.6
20201019221539 50 51 1.0 0.0 0.00 0.00 0.23 96 1020.5
20201019221035 50 83 2.0 0.0 0.00 0.00 0.22 96 1020.5
20201019220528 50 99 1.0 0.0 0.00 0.00 0.22 96 1020.4
20201019220056 50 91 1.0 0.0 0.00 0.00 0.22 96 1020.5
20201019215529 50 95 1.0 0.0 0.00 0.00 0.22 96 1020.7
20201019215040 50 44 1.0 0.0 0.00 0.00 0.22 96 1020.9
20201019214617 50 53 2.0 0.0 0.00 0.00 0.22 96 1020.9
20201019214025 50 61 2.0 0.0 0.00 0.00 0.22 96 1021.0
20201019213525 50 30 2.0 0.0 0.00 0.00 0.22 96 1020.9
20201019213048 50 70 2.0 0.0 0.00 0.00 0.22 96 1021.1
20201019212532 50 50 2.0 0.0 0.00 0.00 0.22 96 1021.1
20201019212038 50 53 1.0 0.0 0.00 0.00 0.22 96 1021.2
20201019211608 50 53 1.0 0.0 0.00 0.00 0.22 96 1021.2
20201019211040 50 52 1.0 0.0 0.00 0.00 0.22 96 1021.0
20201019210526 50 33 2.0 0.0 0.00 0.00 0.22 96 1021.2
20201019210128 49 33 2.0 0.0 0.00 0.00 0.22 96 1021.2
20201019205526 49 40 2.0 0.0 0.00 0.00 0.22 96 1021.2
20201019205041 50 73 2.0 0.0 0.00 0.00 0.22 96 1021.2
20201019204606 49 38 2.0 0.0 0.00 0.00 0.22 96 1021.1
20201019204027 50 82 2.0 0.0 0.00 0.00 0.22 96 1021.1
20201019203535 49 34 1.0 0.0 0.00 0.00 0.22 96 1021.2
20201019203043 49 55 2.0 0.0 0.00 0.00 0.22 96 1020.9
20201019202523 49 92 3.0 0.0 0.00 0.00 0.22 95 1021.1
20201019202023 49 28 2.0 0.0 0.00 0.00 0.22 96 1021.2
20201019201530 49 42 2.0 0.0 0.00 0.00 0.22 96 1021.2
20201019201039 49 30 2.0 0.0 0.00 0.00 0.22 96 1021.4
20201019200522 49 44 2.0 0.0 0.00 0.00 0.22 96 1021.4
20201019200047 49 46 2.0 0.0 0.00 0.00 0.22 96 1021.4
20201019195523 49 32 2.0 0.0 0.00 0.00 0.22 96 1021.2
20201019195022 49 61 2.0 0.0 0.00 0.00 0.22 95 1021.3
20201019194628 49 44 1.0 0.0 0.00 0.00 0.22 95 1021.3
20201019194021 49 46 1.0 0.0 0.00 0.00 0.22 95 1021.3
20201019193522 49 44 1.0 0.0 0.00 0.00 0.22 95 1021.5
20201019193046 49 37 2.0 0.0 0.00 0.00 0.22 95 1021.4
20201019192522 49 42 2.0 0.0 0.00 0.00 0.22 96 1021.4
20201019192029 49 44 2.0 0.0 0.00 0.00 0.22 95 1021.6
20201019191556 49 44 2.0 0.0 0.00 0.00 0.22 95 1021.5
20201019191020 49 38 2.0 0.0 0.00 0.00 0.22 95 1021.6
20201019190521 49 21 2.0 0.0 0.00 0.00 0.22 95 1021.5
20201019190039 49 32 2.0 0.0 0.00 0.00 0.22 95 1021.6
20201019185528 49 40 3.0 0.0 0.00 0.00 0.22 95 1021.6
20201019185025 49 40 3.0 0.0 0.00 0.00 0.22 95 1021.4
20201019184534 49 355 2.0 0.0 0.00 0.00 0.22 95 1021.7
20201019184028 49 41 2.0 0.0 0.00 0.00 0.22 95 1021.7
20201019183524 49 53 2.0 0.0 0.00 0.00 0.22 95 1021.6
20201019183027 49 43 2.0 0.0 0.00 0.00 0.22 95 1021.6
20201019182522 49 58 2.0 0.0 0.00 0.00 0.22 95 1021.7
20201019182025 49 57 3.0 0.0 0.00 0.00 0.21 95 1021.8
20201019181551 49 39 2.0 0.0 0.00 0.00 0.21 95 1021.8
20201019181022 49 42 3.0 0.0 0.00 0.00 0.21 95 1021.9
20201019180520 49 54 3.0 0.0 0.00 0.00 0.21 95 1021.9
20201019180114 49 32 3.0 0.0 0.00 0.00 0.21 95 1022.0
20201019175522 49 24 3.0 0.0 0.00 0.00 0.21 95 1021.9
20201019175019 49 26 2.0 0.0 0.00 0.00 0.21 95 1021.9
20201019174540 49 33 1.0 0.0 0.00 0.00 0.21 95 1021.7
20201019174025 49 53 2.0 0.0 0.00 0.00 0.21 95 1021.8
20201019173517 49 33 2.0 0.0 0.00 0.00 0.21 95 1022.1
20201019173019 49 24 2.0 0.0 0.00 0.00 0.21 95 1022.2
20201019172538 49 32 2.0 0.0 0.00 0.00 0.21 95 1022.2